Weather History for KFSD - March, 2014

Change the Weather History Date:

Sunday, March 9, 2014

  Actual Average Record
Temperature  
Mean Temperature 43 °F 30 °F  
Max Temperature 60 °F 40 °F 63 °F (1967)
Min Temperature 26 °F 20 °F -14 °F (1984)
Degree Days  
Heating Degree Days 22 35  
Month to date heating degree days 451 331  
Since 1 July heating degree days 6798 6181  
Cooling Degree Days 0 0  
Month to date cooling degree days 0 0  
Year to date cooling degree days 0 0  
Moisture  
Dew Point 31 °F    
Average Humidity 62    
Maximum Humidity 79    
Minimum Humidity 44    
Precipitation  
Precipitation 0.00 in 0.05 in 0.68 in (2013)
Month to date precipitation 0.18 0.34  
Year to date precipitation 1.17 1.50  
Snow  
Snow 0.00 in 0.30 in 6.10 in (1992)
Month to date snowfall 2.6 2.8  
Since 1 July snowfall 36.8 34.3  
Snow Depth T in    
Sea Level Pressure  
Sea Level Pressure 29.86 in    
Wind  
Wind Speed 8 mph (SW)    
Max Wind Speed 17 mph    
Max Gust Speed 27 mph    
Visibility 10 miles    
Events      
T = Trace of Precipitation, MM = Missing Value Source: NWS Daily Summary

Daily Weather History Graph

Daily Weather History Graph

Search for Another Location

Airport or City:

Trip Planner

Search our weather history database for the weather conditions in past years. The results will help you decide how hot, cold, wet, or windy it might be!

Date:

Astronomy

Mar. 09, 2014 Rise Set
Actual Time 7:49 AM CDT 7:25 PM CDT
Civil Twilight 7:21 AM CDT 7:54 PM CDT
Nautical Twilight 6:48 AM CDT 8:27 PM CDT
Astronomical Twilight 6:14 AM CDT 9:01 PM CDT
Moon 1:11 PM CDT (3/9) 3:24 AM CDT (3/9)
Length of Visible Light 12h 33m
Length of Day
11h 36m
First Quarter, 61% of the Moon is Illuminated
Mar 9
First Quarter
Mar 16
Full
Mar 23
Last Quarter
Mar 30
New
Apr 7
First Quarter

Hourly Weather History & Observations

Time (CDT) Temp. Windchill Dew Point Humidity Pressure Visibility Wind Dir Wind Speed Gust Speed Precip Events Conditions
12:56 AM 27.0 °F 16.7 °F 19.0 °F 72% 30.15 in 10.0 mi South 11.5 mph - N/A   Clear
1:56 AM 28.0 °F 18.1 °F 19.0 °F 69% 30.12 in 10.0 mi SSW 11.5 mph - N/A   Clear
3:56 AM 28.9 °F - 21.0 °F 72% 30.08 in 10.0 mi North - - N/A   Clear
4:56 AM 30.0 °F 19.1 °F 23.0 °F 75% 30.02 in 10.0 mi South 15.0 mph - N/A   Partly Cloudy
5:56 AM 30.0 °F 20.0 °F 23.0 °F 75% 29.99 in 10.0 mi SSW 12.7 mph - N/A   Partly Cloudy
6:56 AM 32.0 °F 23.0 °F 25.0 °F 75% 29.96 in 10.0 mi SSW 11.5 mph - N/A   Overcast
7:56 AM 34.0 °F 24.6 °F 26.1 °F 73% 29.93 in 10.0 mi SSW 13.8 mph - N/A   Mostly Cloudy
8:56 AM 35.1 °F 27.9 °F 27.0 °F 72% 29.92 in 10.0 mi SSW 9.2 mph - N/A   Mostly Cloudy
9:56 AM 39.0 °F 31.8 °F 28.9 °F 67% 29.89 in 10.0 mi SSW 11.5 mph - N/A   Mostly Cloudy
10:56 AM 43.0 °F 36.8 °F 30.9 °F 62% 29.86 in 10.0 mi SW 11.5 mph - N/A   Overcast
11:56 AM 48.0 °F - 33.1 °F 56% 29.83 in 10.0 mi SW 8.1 mph - N/A   Mostly Cloudy
12:56 PM 51.1 °F - 33.1 °F 50% 29.83 in 10.0 mi WSW 10.4 mph 19.6 mph N/A   Overcast
1:56 PM 54.0 °F - 34.0 °F 47% 29.81 in 10.0 mi SW 6.9 mph 17.3 mph N/A   Overcast
2:56 PM 55.9 °F - 36.0 °F 47% 29.79 in 10.0 mi WSW 8.1 mph - N/A   Mostly Cloudy
3:56 PM 57.0 °F - 37.0 °F 47% 29.78 in 10.0 mi WSW 4.6 mph - N/A   Mostly Cloudy
4:56 PM 59.0 °F - 37.0 °F 44% 29.75 in 10.0 mi SW 6.9 mph - N/A   Overcast
5:56 PM 55.9 °F - 37.9 °F 51% 29.76 in 10.0 mi WSW 3.5 mph - N/A   Overcast
6:56 PM 52.0 °F - 37.0 °F 57% 29.77 in 10.0 mi West 3.5 mph - N/A   Overcast
7:56 PM 50.0 °F - 34.0 °F 54% 29.77 in 10.0 mi West 5.8 mph - N/A   Overcast
8:56 PM 46.0 °F - 34.0 °F 63% 29.78 in 10.0 mi Calm Calm - N/A   Overcast
9:56 PM 42.1 °F - 34.0 °F 73% 29.76 in 10.0 mi Calm Calm - N/A   Overcast
10:56 PM 39.9 °F - 33.1 °F 77% 29.77 in 10.0 mi Calm Calm - N/A   Overcast
11:56 PM 39.9 °F 37.8 °F 33.1 °F 77% 29.75 in 10.0 mi WSW 3.5 mph - N/A   Mostly Cloudy
12:56 AM 46.0 °F 41.0 °F 32.0 °F 58% 29.73 in 10.0 mi WNW 10.4 mph - N/A   Clear